This demonstration page uses our WeatherBlox Daily Observations layout. Learn more.

Left ArrowRight Arrow

41.86663, -103.66717

Hourly Observations for August 20, 2021

Temp ( °F °C ) Dew Point ( °F °C ) Humidity (%) Winds ( mph kmh ) Pressure ( in mb ) Visibility ( mi km ) Precip ( " mm )
12:53 am 00:53 Cloudy 65 18.3 57 13.9 76 76 N N/A 29.77 1008 10 16 N/A
1:53 am 01:53 Clear 62 16.7 57 13.9 84 84 W 3 6 29.76 1008 10 16 N/A
2:53 am 02:53 Mostly Cloudy 62 16.7 56 13.3 80 80 WNW 5 7 29.74 1007 10 16 N/A
3:53 am 03:53 Cloudy 63 17.2 56 13.3 78 78 W 12 19 29.77 1008 10 16 N/A
4:53 am 04:53 Cloudy 60 15.6 47 8.3 62 62 WNW 18 30 29.78 1008 10 16 0.00 0.00
5:53 am 05:53 Cloudy with Rain 55 12.8 51 10.6 87 87 WNW 16 26 29.81 1010 5 8 0.05 1.27
6:53 am 06:53 Cloudy 55 12.8 53 11.7 93 93 W 8 13 29.81 1009 8 13 0.09 2.29
7:53 am 07:53 Sunny 57 13.9 52 11.1 83 83 W 3 6 29.80 1009 8 13 N/A
8:53 am 08:53 Sunny 62 16.7 50 10 65 65 WNW 10 17 29.79 1009 10 16 N/A
9:53 am 09:53 Sunny 67 19.4 47 8.3 49 49 W 15 24 29.79 1009 10 16 N/A
10:53 am 10:53 Sunny 71 21.7 43 6.1 36 36 W 25 41 29.78 1008 10 16 N/A
11:53 am 11:53 Sunny 74 23.3 44 6.7 34 34 W 20 31 29.79 1009 10 16 N/A
12:53 pm 12:53 Mostly Sunny 76 24.4 43 6.1 31 31 W 20 31 29.80 1009 10 16 N/A
1:53 pm 13:53 Sunny 77 25 43 6.1 30 30 W 30 48 29.80 1009 10 16 N/A
2:53 pm 14:53 Mostly Sunny 78 25.6 44 6.7 30 30 W 25 41 29.81 1009 10 16 N/A
3:53 pm 15:53 Partly Cloudy 78 25.6 43 6.1 29 29 W 17 28 29.80 1009 10 16 N/A
4:53 pm 16:53 Mostly Cloudy 74 23.3 43 6.1 33 33 NW 16 26 29.84 1010 10 16 N/A
5:53 pm 17:53 Sunny 75 23.9 44 6.7 33 33 WNW 18 30 29.86 1011 10 16 N/A
6:53 pm 18:53 Sunny 71 21.7 44 6.7 38 38 NNW 16 26 29.89 1012 10 16 N/A
7:53 pm 19:53 Clear 65 18.3 45 7.2 49 49 NNW 9 15 29.92 1013 10 16 N/A
8:53 pm 20:53 Clear 61 16.1 45 7.2 56 56 N N/A 29.94 1014 10 16 N/A
9:53 pm 21:53 Clear 57 13.9 46 7.8 67 67 WNW 8 13 29.95 1014 10 16 N/A
10:53 pm 22:53 Clear 56 13.3 46 7.8 70 70 NW 5 7 29.94 1014 10 16 N/A
11:53 pm 23:53 Clear 54 12.2 45 7.2 72 72 NW 7 11 29.95 1014 10 16 N/A

Powered by AerisWeather